Time,TemperatureF,DewpointF,PressureIn,WindDirection,WindDirectionDegrees,WindSpeedMPH,WindSpeedGustMPH,Humidity,HourlyPrecipIn,Conditions,Clouds,dailyrainin,SolarRadiationWatts/m^2,SoftwareType,DateUTC
2013-04-05 00:00:00,40.4,24.1,30.11,SSE,168,3.0,3.0,52,0.00,,,0.00,0,Wunderground v.1.15,2013-04-05 04:00:00,
2013-04-05 00:01:00,40.4,24.1,30.10,SE,145,3.0,3.0,52,0.00,,,0.00,0,Wunderground v.1.15,2013-04-05 04:01:00,
2013-04-05 00:04:00,40.4,24.1,30.11,SE,143,0.0,3.0,52,0.00,,,0.00,0,Wunderground v.1.15,2013-04-05 04:04:00,
2013-04-05 00:09:00,40.5,24.2,30.10,SE,144,2.0,3.0,52,0.00,,,0.00,0,Wunderground v.1.15,2013-04-05 04:09:00,
2013-04-05 00:15:00,40.5,24.2,30.10,SE,139,3.0,3.0,52,0.00,,,0.00,0,Wunderground v.1.15,2013-04-05 04:15:00,
2013-04-05 00:20:00,40.5,24.2,30.10,SSW,206,0.0,0.0,52,0.00,,,0.00,0,Wunderground v.1.15,2013-04-05 04:20:00,
2013-04-05 00:25:00,40.6,24.3,30.10,SE,141,2.0,2.0,52,0.00,,,0.00,0,Wunderground v.1.15,2013-04-05 04:25:00,
2013-04-05 00:32:00,40.7,24.4,30.10,SSE,157,3.0,3.0,52,0.00,,,0.00,0,Wunderground v.1.15,2013-04-05 04:32:00,
2013-04-05 00:38:00,40.8,24.5,30.10,SSW,210,2.0,4.0,52,0.00,,,0.00,0,Wunderground v.1.15,2013-04-05 04:38:00,
2013-04-05 00:44:00,40.9,24.6,30.09,SSW,202,3.0,4.0,52,0.00,,,0.00,0,Wunderground v.1.15,2013-04-05 04:44:00,
2013-04-05 00:50:00,41.0,24.7,30.09,SSE,154,9.0,9.0,52,0.00,,,0.00,0,Wunderground v.1.15,2013-04-05 04:50:00,
2013-04-05 00:56:00,41.0,24.7,30.09,South,169,3.0,9.0,52,0.00,,,0.00,0,Wunderground v.1.15,2013-04-05 04:56:00,
2013-04-05 01:01:00,41.1,24.8,30.10,South,175,3.0,4.0,52,0.00,,,0.00,0,Wunderground v.1.15,2013-04-05 05:01:00,
2013-04-05 01:08:00,41.1,24.8,30.09,SSE,157,2.0,8.0,52,0.00,,,0.00,0,Wunderground v.1.15,2013-04-05 05:08:00,
2013-04-05 01:14:00,41.1,24.8,30.09,SE,146,1.0,4.0,52,0.00,,,0.00,0,Wunderground v.1.15,2013-04-05 05:14:00,
2013-04-05 01:20:00,41.1,24.8,30.09,SSE,148,1.0,1.0,52,0.00,,,0.00,0,Wunderground v.1.15,2013-04-05 05:20:00,
2013-04-05 01:26:00,41.1,24.8,30.09,SSW,197,1.0,5.0,52,0.00,,,0.00,0,Wunderground v.1.15,2013-04-05 05:26:00,
2013-04-05 01:31:00,41.2,24.9,30.08,SSW,203,3.0,4.0,52,0.00,,,0.00,0,Wunderground v.1.15,2013-04-05 05:31:00,
2013-04-05 01:37:00,41.1,24.8,30.08,SSE,159,2.0,4.0,52,0.00,,,0.00,0,Wunderground v.1.15,2013-04-05 05:37:00,
2013-04-05 01:44:00,41.2,24.9,30.07,SSE,163,0.0,4.0,52,0.00,,,0.00,0,Wunderground v.1.15,2013-04-05 05:44:00,
2013-04-05 01:49:00,41.3,25.0,30.07,West,259,2.0,4.0,52,0.00,,,0.00,0,Wunderground v.1.15,2013-04-05 05:49:00,
2013-04-05 01:55:00,41.3,25.0,30.06,SW,234,3.0,5.0,52,0.00,,,0.00,0,Wunderground v.1.15,2013-04-05 05:55:00,
2013-04-05 02:01:00,41.3,25.0,30.06,South,184,0.0,3.0,52,0.00,,,0.00,0,Wunderground v.1.15,2013-04-05 06:01:00,
2013-04-05 02:06:00,41.2,25.3,30.05,South,186,2.0,3.0,53,0.00,,,0.00,0,Wunderground v.1.15,2013-04-05 06:06:00,
2013-04-05 02:11:00,41.0,25.2,30.05,South,186,1.0,3.0,53,0.00,,,0.00,0,Wunderground v.1.15,2013-04-05 06:11:00,
2013-04-05 02:16:00,40.8,25.0,30.05,South,186,0.0,3.0,53,0.00,,,0.00,0,Wunderground v.1.15,2013-04-05 06:16:00,
2013-04-05 02:21:00,40.6,25.2,30.05,South,186,0.0,1.0,54,0.00,,,0.00,0,Wunderground v.1.15,2013-04-05 06:21:00,
2013-04-05 02:27:00,40.5,25.6,30.04,South,186,0.0,2.0,55,0.00,,,0.00,0,Wunderground v.1.15,2013-04-05 06:27:00,
2013-04-05 02:32:00,40.1,25.2,30.05,South,186,0.0,2.0,55,0.00,,,0.00,0,Wunderground v.1.15,2013-04-05 06:32:00,
2013-04-05 02:37:00,40.0,25.6,30.04,South,186,0.0,2.0,56,0.00,,,0.00,0,Wunderground v.1.15,2013-04-05 06:37:00,
2013-04-05 02:42:00,39.8,25.8,30.04,South,186,2.0,2.0,57,0.00,,,0.00,0,Wunderground v.1.15,2013-04-05 06:42:00,
2013-04-05 02:47:00,39.6,26.0,30.04,South,185,2.0,3.0,58,0.00,,,0.00,0,Wunderground v.1.15,2013-04-05 06:47:00,
2013-04-05 02:52:00,39.6,26.4,30.03,South,186,0.0,2.0,59,0.00,,,0.00,0,Wunderground v.1.15,2013-04-05 06:52:00,
2013-04-05 02:57:00,39.5,26.3,30.03,South,186,1.0,2.0,59,0.00,,,0.00,0,Wunderground v.1.15,2013-04-05 06:57:00,
2013-04-05 03:02:00,39.2,26.5,30.03,South,186,1.0,2.0,60,0.00,,,0.00,0,Wunderground v.1.15,2013-04-05 07:02:00,
2013-04-05 03:07:00,39.1,26.8,30.03,South,187,2.0,3.0,61,0.00,,,0.00,0,Wunderground v.1.15,2013-04-05 07:07:00,
2013-04-05 03:12:00,39.1,26.8,30.02,South,187,0.0,2.0,61,0.00,,,0.00,0,Wunderground v.1.15,2013-04-05 07:12:00,
2013-04-05 03:17:00,39.0,27.1,30.02,South,187,0.0,2.0,62,0.00,,,0.00,0,Wunderground v.1.15,2013-04-05 07:17:00,
2013-04-05 03:22:00,38.9,27.0,30.02,South,187,0.0,2.0,62,0.00,,,0.00,0,Wunderground v.1.15,2013-04-05 07:22:00,
2013-04-05 03:27:00,38.7,26.8,30.02,South,186,0.0,2.0,62,0.00,,,0.00,0,Wunderground v.1.15,2013-04-05 07:27:00,
2013-04-05 03:32:00,38.8,27.3,30.01,South,187,0.0,2.0,63,0.00,,,0.00,0,Wunderground v.1.15,2013-04-05 07:32:00,
2013-04-05 03:37:00,38.6,27.1,30.01,South,187,0.0,2.0,63,0.00,,,0.00,0,Wunderground v.1.15,2013-04-05 07:37:00,
2013-04-05 03:42:00,38.5,27.0,30.00,South,187,0.0,0.0,63,0.00,,,0.00,0,Wunderground v.1.15,2013-04-05 07:42:00,
2013-04-05 03:47:00,38.5,27.0,30.00,South,186,0.0,0.0,63,0.00,,,0.00,0,Wunderground v.1.15,2013-04-05 07:47:00,
2013-04-05 03:52:00,38.5,27.0,30.00,South,186,0.0,1.0,63,0.00,,,0.00,0,Wunderground v.1.15,2013-04-05 07:52:00,
2013-04-05 03:57:00,38.5,27.0,30.00,South,186,0.0,1.0,63,0.00,,,0.00,0,Wunderground v.1.15,2013-04-05 07:57:00,
2013-04-05 04:02:00,38.5,27.4,30.00,South,187,0.0,0.0,64,0.00,,,0.00,0,Wunderground v.1.15,2013-04-05 08:02:00,
2013-04-05 04:07:00,38.4,27.3,29.99,South,186,0.0,0.0,64,0.00,,,0.00,0,Wunderground v.1.15,2013-04-05 08:07:00,
2013-04-05 04:12:00,38.5,27.4,29.99,South,187,0.0,0.0,64,0.00,,,0.00,0,Wunderground v.1.15,2013-04-05 08:12:00,
2013-04-05 04:17:00,38.3,27.2,29.98,South,187,0.0,0.0,64,0.00,,,0.00,0,Wunderground v.1.15,2013-04-05 08:17:00,
2013-04-05 04:22:00,38.3,27.2,29.98,South,186,0.0,0.0,64,0.00,,,0.00,0,Wunderground v.1.15,2013-04-05 08:22:00,
2013-04-05 04:27:00,38.1,27.0,29.97,South,187,0.0,0.0,64,0.00,,,0.00,0,Wunderground v.1.15,2013-04-05 08:27:00,
2013-04-05 04:32:00,38.0,26.9,29.96,South,186,0.0,0.0,64,0.00,,,0.00,0,Wunderground v.1.15,2013-04-05 08:32:00,
2013-04-05 04:37:00,38.2,27.1,29.96,South,186,0.0,0.0,64,0.00,,,0.00,0,Wunderground v.1.15,2013-04-05 08:37:00,
2013-04-05 04:42:00,38.0,27.3,29.97,South,186,0.0,0.0,65,0.00,,,0.00,0,Wunderground v.1.15,2013-04-05 08:42:00,
2013-04-05 04:47:00,37.9,26.8,29.97,South,186,0.0,0.0,64,0.00,,,0.00,0,Wunderground v.1.15,2013-04-05 08:47:00,
2013-04-05 04:52:00,37.9,27.2,29.97,South,186,0.0,0.0,65,0.00,,,0.00,0,Wunderground v.1.15,2013-04-05 08:52:00,
2013-04-05 04:58:00,38.1,27.4,29.97,South,186,0.0,0.0,65,0.00,,,0.00,0,Wunderground v.1.15,2013-04-05 08:58:00,
2013-04-05 05:04:00,38.0,27.3,29.97,South,186,0.0,0.0,65,0.00,,,0.00,0,Wunderground v.1.15,2013-04-05 09:04:00,
2013-04-05 05:09:00,38.0,27.3,29.97,South,187,0.0,0.0,65,0.00,,,0.00,0,Wunderground v.1.15,2013-04-05 09:09:00,
2013-04-05 05:14:00,38.2,27.5,29.97,South,186,0.0,0.0,65,0.00,,,0.00,0,Wunderground v.1.15,2013-04-05 09:14:00,
2013-04-05 05:19:00,38.0,27.3,29.98,South,186,0.0,0.0,65,0.00,,,0.00,0,Wunderground v.1.15,2013-04-05 09:19:00,
2013-04-05 05:24:00,37.9,27.2,29.97,South,187,0.0,0.0,65,0.00,,,0.00,0,Wunderground v.1.15,2013-04-05 09:24:00,
2013-04-05 05:29:00,38.0,27.3,29.96,South,186,0.0,0.0,65,0.00,,,0.00,0,Wunderground v.1.15,2013-04-05 09:29:00,
2013-04-05 05:34:00,37.8,27.5,29.96,South,187,0.0,0.0,66,0.00,,,0.00,0,Wunderground v.1.15,2013-04-05 09:34:00,
2013-04-05 05:39:00,38.0,27.3,29.96,South,186,0.0,0.0,65,0.00,,,0.00,0,Wunderground v.1.15,2013-04-05 09:39:00,
2013-04-05 05:44:00,37.9,27.5,29.97,South,186,0.0,0.0,66,0.00,,,0.00,0,Wunderground v.1.15,2013-04-05 09:44:00,
2013-04-05 05:49:00,37.9,27.5,29.96,South,186,0.0,0.0,66,0.00,,,0.00,0,Wunderground v.1.15,2013-04-05 09:49:00,
2013-04-05 05:54:00,37.8,27.5,29.96,South,187,0.0,0.0,66,0.00,,,0.00,0,Wunderground v.1.15,2013-04-05 09:54:00,
2013-04-05 05:59:00,37.8,27.5,29.95,South,186,0.0,0.0,66,0.00,,,0.00,0,Wunderground v.1.15,2013-04-05 09:59:00,
2013-04-05 06:04:00,37.5,27.2,29.95,South,187,0.0,0.0,66,0.00,,,0.00,0,Wunderground v.1.15,2013-04-05 10:04:00,
2013-04-05 06:09:00,37.4,27.1,29.95,South,187,0.0,0.0,66,0.00,,,0.00,0,Wunderground v.1.15,2013-04-05 10:09:00,
2013-04-05 06:15:00,37.5,27.2,29.95,South,187,0.0,0.0,66,0.00,,,0.00,0,Wunderground v.1.15,2013-04-05 10:15:00,
2013-04-05 06:20:00,37.5,27.2,29.94,South,187,0.0,0.0,66,0.00,,,0.00,0,Wunderground v.1.15,2013-04-05 10:20:00,
2013-04-05 06:25:00,37.6,27.3,29.95,South,187,0.0,0.0,66,0.00,,,0.00,0,Wunderground v.1.15,2013-04-05 10:25:00,
2013-04-05 06:30:00,37.8,27.5,29.94,South,186,0.0,0.0,66,0.00,,,0.00,0,Wunderground v.1.15,2013-04-05 10:30:00,
2013-04-05 06:35:00,37.9,27.5,29.94,South,187,0.0,0.0,66,0.00,,,0.00,0,Wunderground v.1.15,2013-04-05 10:35:00,
2013-04-05 06:40:00,37.8,27.8,29.93,South,187,0.0,0.0,67,0.00,,,0.00,0,Wunderground v.1.15,2013-04-05 10:40:00,
2013-04-05 06:45:00,37.9,27.9,29.94,South,187,0.0,0.0,67,0.00,,,0.00,0,Wunderground v.1.15,2013-04-05 10:45:00,
2013-04-05 06:50:00,37.8,27.8,29.94,South,187,0.0,0.0,67,0.00,,,0.00,0,Wunderground v.1.15,2013-04-05 10:50:00,
2013-04-05 06:55:00,37.9,27.5,29.94,South,186,0.0,1.0,66,0.00,,,0.00,0,Wunderground v.1.15,2013-04-05 10:55:00,
2013-04-05 07:00:00,37.8,27.8,29.94,South,186,0.0,0.0,67,0.00,,,0.00,0,Wunderground v.1.15,2013-04-05 11:00:00,
2013-04-05 07:05:00,37.8,27.8,29.94,South,187,0.0,0.0,67,0.00,,,0.00,0,Wunderground v.1.15,2013-04-05 11:05:00,
2013-04-05 07:10:00,38.0,28.0,29.94,South,187,0.0,0.0,67,0.00,,,0.00,0,Wunderground v.1.15,2013-04-05 11:10:00,
2013-04-05 07:15:00,38.1,28.1,29.93,South,187,0.0,0.0,67,0.00,,,0.00,0,Wunderground v.1.15,2013-04-05 11:15:00,
2013-04-05 07:20:00,38.0,28.0,29.93,South,186,0.0,0.0,67,0.00,,,0.00,0,Wunderground v.1.15,2013-04-05 11:20:00,
2013-04-05 07:25:00,38.0,28.0,29.92,South,187,1.0,1.0,67,0.00,,,0.00,0,Wunderground v.1.15,2013-04-05 11:25:00,
2013-04-05 07:30:00,38.0,28.0,29.92,South,186,0.0,1.0,67,0.00,,,0.00,0,Wunderground v.1.15,2013-04-05 11:30:00,
2013-04-05 07:35:00,38.0,28.0,29.92,South,186,0.0,1.0,67,0.00,,,0.00,0,Wunderground v.1.15,2013-04-05 11:35:00,
2013-04-05 07:40:00,38.1,28.1,29.91,South,186,0.0,0.0,67,0.00,,,0.00,0,Wunderground v.1.15,2013-04-05 11:40:00,
2013-04-05 07:45:00,38.1,28.1,29.91,South,187,0.0,0.0,67,0.00,,,0.00,0,Wunderground v.1.15,2013-04-05 11:45:00,
2013-04-05 07:50:00,38.2,28.2,29.91,South,187,0.0,0.0,67,0.00,,,0.00,0,Wunderground v.1.15,2013-04-05 11:50:00,
2013-04-05 07:55:00,38.2,28.2,29.91,South,187,0.0,0.0,67,0.00,,,0.00,0,Wunderground v.1.15,2013-04-05 11:55:00,
2013-04-05 08:00:00,38.4,28.4,29.91,South,187,0.0,0.0,67,0.00,,,0.00,0,Wunderground v.1.15,2013-04-05 12:00:00,
2013-04-05 08:05:00,38.7,29.0,29.92,South,187,0.0,0.0,68,0.00,,,0.00,0,Wunderground v.1.15,2013-04-05 12:05:00,
2013-04-05 08:10:00,38.7,29.0,29.91,South,187,0.0,0.0,68,0.00,,,0.00,0,Wunderground v.1.15,2013-04-05 12:10:00,
2013-04-05 08:15:00,38.8,28.8,29.91,South,187,0.0,1.0,67,0.00,,,0.00,0,Wunderground v.1.15,2013-04-05 12:15:00,
2013-04-05 08:20:00,38.7,29.0,29.91,South,187,0.0,0.0,68,0.00,,,0.00,0,Wunderground v.1.15,2013-04-05 12:20:00,
2013-04-05 08:25:00,38.8,29.1,29.91,South,187,0.0,0.0,68,0.00,,,0.00,0,Wunderground v.1.15,2013-04-05 12:25:00,
2013-04-05 08:30:00,38.8,29.1,29.91,South,186,0.0,0.0,68,0.00,,,0.00,0,Wunderground v.1.15,2013-04-05 12:30:00,
2013-04-05 08:35:00,39.0,29.3,29.90,South,186,0.0,0.0,68,0.00,,,0.00,0,Wunderground v.1.15,2013-04-05 12:35:00,
2013-04-05 08:40:00,39.1,29.4,29.90,South,186,2.0,2.0,68,0.00,,,0.00,0,Wunderground v.1.15,2013-04-05 12:40:00,
2013-04-05 08:45:00,39.2,29.5,29.89,South,187,2.0,3.0,68,0.00,,,0.00,0,Wunderground v.1.15,2013-04-05 12:45:00,
2013-04-05 08:50:00,39.3,29.6,29.88,South,186,1.0,1.0,68,0.00,,,0.00,0,Wunderground v.1.15,2013-04-05 12:50:00,
2013-04-05 08:55:00,39.2,29.5,29.89,South,186,0.0,3.0,68,0.00,,,0.00,0,Wunderground v.1.15,2013-04-05 12:55:00,
2013-04-05 09:00:00,39.4,29.7,29.88,SSW,192,1.0,3.0,68,0.00,,,0.00,0,Wunderground v.1.15,2013-04-05 13:00:00,
2013-04-05 09:05:00,39.4,29.7,29.88,SSE,161,1.0,3.0,68,0.00,,,0.00,0,Wunderground v.1.15,2013-04-05 13:05:00,
2013-04-05 09:10:00,39.8,30.1,29.87,SSE,159,0.0,1.0,68,0.00,,,0.00,0,Wunderground v.1.15,2013-04-05 13:10:00,
2013-04-05 09:15:00,40.0,30.6,29.87,NNW,332,4.0,5.0,69,0.00,,,0.00,0,Wunderground v.1.15,2013-04-05 13:15:00,
2013-04-05 09:20:00,40.2,30.5,29.87,NNW,332,1.0,2.0,68,0.00,,,0.00,0,Wunderground v.1.15,2013-04-05 13:20:00,
2013-04-05 09:25:00,40.6,30.9,29.87,NNW,332,1.0,4.0,68,0.00,,,0.00,0,Wunderground v.1.15,2013-04-05 13:25:00,
2013-04-05 09:30:00,41.2,31.8,29.87,NNW,341,2.0,8.0,69,0.00,,,0.00,0,Wunderground v.1.15,2013-04-05 13:30:00,
2013-04-05 09:35:00,41.2,31.8,29.87,NNW,338,3.0,8.0,69,0.00,,,0.00,0,Wunderground v.1.15,2013-04-05 13:35:00,
2013-04-05 09:40:00,41.1,31.7,29.86,NNW,335,3.0,4.0,69,0.00,,,0.00,0,Wunderground v.1.15,2013-04-05 13:40:00,
2013-04-05 09:46:00,41.4,32.0,29.86,NNW,337,4.0,6.0,69,0.00,,,0.00,0,Wunderground v.1.15,2013-04-05 13:46:00,
2013-04-05 09:51:00,41.7,32.3,29.87,NNW,344,3.0,4.0,69,0.00,,,0.00,0,Wunderground v.1.15,2013-04-05 13:51:00,
2013-04-05 09:55:00,41.5,32.1,29.87,North,354,3.0,8.0,69,0.00,,,0.00,0,Wunderground v.1.15,2013-04-05 13:55:00,
2013-04-05 10:01:00,41.6,32.2,29.87,NNW,338,1.0,5.0,69,0.00,,,0.00,0,Wunderground v.1.15,2013-04-05 14:01:00,
2013-04-05 10:06:00,41.6,32.2,29.87,North,357,4.0,7.0,69,0.00,,,0.00,0,Wunderground v.1.15,2013-04-05 14:06:00,
2013-04-05 10:11:00,41.7,32.3,29.87,NNW,335,2.0,7.0,69,0.00,,,0.00,0,Wunderground v.1.15,2013-04-05 14:11:00,
2013-04-05 10:16:00,41.7,31.9,29.87,NNW,341,6.0,9.0,68,0.00,,,0.00,0,Wunderground v.1.15,2013-04-05 14:16:00,
2013-04-05 10:21:00,41.7,32.3,29.86,North,3,2.0,5.0,69,0.00,,,0.00,0,Wunderground v.1.15,2013-04-05 14:21:00,
2013-04-05 10:26:00,42.3,32.8,29.86,NW,310,1.0,6.0,69,0.00,,,0.00,0,Wunderground v.1.15,2013-04-05 14:26:00,
2013-04-05 10:31:00,42.3,32.5,29.86,West,274,1.0,3.0,68,0.00,,,0.00,0,Wunderground v.1.15,2013-04-05 14:31:00,
2013-04-05 10:36:00,43.1,33.6,29.85,ENE,57,0.0,5.0,69,0.00,,,0.00,0,Wunderground v.1.15,2013-04-05 14:36:00,
2013-04-05 10:42:00,44.0,34.5,29.85,NE,42,0.0,3.0,69,0.00,,,0.00,0,Wunderground v.1.15,2013-04-05 14:42:00,
2013-04-05 10:47:00,44.8,35.2,29.85,NNE,21,0.0,5.0,69,0.00,,,0.00,0,Wunderground v.1.15,2013-04-05 14:47:00,
2013-04-05 10:52:00,45.8,35.8,29.85,North,4,4.0,8.0,68,0.00,,,0.00,0,Wunderground v.1.15,2013-04-05 14:52:00,
2013-04-05 10:57:00,46.5,36.5,29.84,WNW,301,5.0,8.0,68,0.00,,,0.00,0,Wunderground v.1.15,2013-04-05 14:57:00,
2013-04-05 11:02:00,46.7,36.3,29.84,NW,315,3.0,7.0,67,0.00,,,0.00,0,Wunderground v.1.15,2013-04-05 15:02:00,
2013-04-05 11:07:00,46.5,35.7,29.84,WNW,282,2.0,7.0,66,0.00,,,0.00,0,Wunderground v.1.15,2013-04-05 15:07:00,
2013-04-05 11:13:00,47.2,36.4,29.84,NNW,341,6.0,8.0,66,0.00,,,0.00,0,Wunderground v.1.15,2013-04-05 15:13:00,
2013-04-05 11:18:00,47.8,36.6,29.84,WNW,296,0.0,8.0,65,0.00,,,0.00,0,Wunderground v.1.15,2013-04-05 15:18:00,
2013-04-05 11:23:00,48.9,36.9,29.84,NNW,338,4.0,6.0,63,0.00,,,0.00,0,Wunderground v.1.15,2013-04-05 15:23:00,
2013-04-05 11:28:00,49.0,38.5,29.83,North,358,7.0,8.0,67,0.00,,,0.00,0,Wunderground v.1.15,2013-04-05 15:28:00,
2013-04-05 11:33:00,49.6,38.3,29.82,NNW,345,5.0,8.0,65,0.00,,,0.00,0,Wunderground v.1.15,2013-04-05 15:33:00,
2013-04-05 11:38:00,49.9,37.8,29.82,NNW,332,3.0,8.0,63,0.00,,,0.00,0,Wunderground v.1.15,2013-04-05 15:38:00,
2013-04-05 11:43:00,50.0,34.9,29.82,NW,326,2.0,8.0,56,0.00,,,0.00,0,Wunderground v.1.15,2013-04-05 15:43:00,
2013-04-05 11:48:00,50.7,36.0,29.83,West,267,4.0,10.0,57,0.00,,,0.00,0,Wunderground v.1.15,2013-04-05 15:48:00,
2013-04-05 11:54:00,51.8,36.1,29.82,NNW,347,7.0,11.0,55,0.00,,,0.00,0,Wunderground v.1.15,2013-04-05 15:54:00,
2013-04-05 11:59:00,52.4,35.8,29.82,NNW,341,13.0,13.0,53,0.00,,,0.00,0,Wunderground v.1.15,2013-04-05 15:59:00,
2013-04-05 12:04:00,52.3,34.7,29.81,North,6,5.0,10.0,51,0.00,,,0.00,0,Wunderground v.1.15,2013-04-05 16:04:00,
2013-04-05 12:09:00,52.5,34.4,29.81,NNW,341,6.0,11.0,50,0.00,,,0.00,0,Wunderground v.1.15,2013-04-05 16:09:00,
2013-04-05 12:14:00,52.8,32.6,29.81,NW,314,7.0,10.0,46,0.00,,,0.00,0,Wunderground v.1.15,2013-04-05 16:14:00,
2013-04-05 12:19:00,53.4,32.6,29.81,NNW,333,5.0,10.0,45,0.00,,,0.00,0,Wunderground v.1.15,2013-04-05 16:19:00,
2013-04-05 12:25:00,53.6,31.6,29.80,NNW,336,5.0,16.0,43,0.00,,,0.00,0,Wunderground v.1.15,2013-04-05 16:25:00,
2013-04-05 12:30:00,54.3,31.7,29.80,NNW,335,8.0,8.0,42,0.00,,,0.00,0,Wunderground v.1.15,2013-04-05 16:30:00,
2013-04-05 12:36:00,54.5,30.6,29.79,NNE,13,7.0,10.0,40,0.00,,,0.00,0,Wunderground v.1.15,2013-04-05 16:36:00,
2013-04-05 12:41:00,54.6,30.1,29.79,NNW,330,11.0,11.0,39,0.00,,,0.00,0,Wunderground v.1.15,2013-04-05 16:41:00,
2013-04-05 12:46:00,54.9,29.7,29.79,NNW,337,6.0,13.0,38,0.00,,,0.00,0,Wunderground v.1.15,2013-04-05 16:46:00,
2013-04-05 12:51:00,55.8,31.2,29.78,North,0,5.0,5.0,39,0.00,,,0.00,0,Wunderground v.1.15,2013-04-05 16:51:00,
2013-04-05 12:56:00,56.5,29.8,29.78,North,359,3.0,8.0,36,0.00,,,0.00,0,Wunderground v.1.15,2013-04-05 16:56:00,
2013-04-05 13:01:00,56.6,28.5,29.78,WNW,286,5.0,6.0,34,0.00,,,0.00,0,Wunderground v.1.15,2013-04-05 17:01:00,
2013-04-05 13:06:00,56.4,28.3,29.78,NNW,335,3.0,11.0,34,0.00,,,0.00,0,Wunderground v.1.15,2013-04-05 17:06:00,
2013-04-05 13:11:00,56.5,27.7,29.78,North,355,4.0,7.0,33,0.00,,,0.00,0,Wunderground v.1.15,2013-04-05 17:11:00,
2013-04-05 13:16:00,56.7,27.9,29.78,NNW,339,6.0,10.0,33,0.00,,,0.00,0,Wunderground v.1.15,2013-04-05 17:16:00,
2013-04-05 13:21:00,56.8,28.0,29.78,NNW,348,3.0,4.0,33,0.00,,,0.00,0,Wunderground v.1.15,2013-04-05 17:21:00,
2013-04-05 13:26:00,57.9,28.9,29.78,NNW,346,0.0,6.0,33,0.00,,,0.00,0,Wunderground v.1.15,2013-04-05 17:26:00,
2013-04-05 13:31:00,59.4,29.5,29.79,ENE,62,3.0,5.0,32,0.00,,,0.00,0,Wunderground v.1.15,2013-04-05 17:31:00,
2013-04-05 13:36:00,59.9,27.5,29.78,North,349,5.0,8.0,29,0.00,,,0.00,0,Wunderground v.1.15,2013-04-05 17:36:00,
2013-04-05 13:41:00,59.7,27.4,29.77,NNW,333,3.0,6.0,29,0.00,,,0.00,0,Wunderground v.1.15,2013-04-05 17:41:00,
2013-04-05 13:46:00,59.4,25.4,29.77,WNW,294,3.0,10.0,27,0.00,,,0.00,0,Wunderground v.1.15,2013-04-05 17:46:00,
2013-04-05 13:51:00,59.3,26.2,29.76,WNW,297,8.0,8.0,28,0.00,,,0.00,0,Wunderground v.1.15,2013-04-05 17:51:00,
2013-04-05 13:56:00,59.7,27.4,29.76,NE,43,0.0,9.0,29,0.00,,,0.00,0,Wunderground v.1.15,2013-04-05 17:56:00,
2013-04-05 14:01:00,60.9,28.4,29.75,North,9,8.0,8.0,29,0.00,,,0.00,0,Wunderground v.1.15,2013-04-05 18:01:00,
2013-04-05 14:06:00,60.4,26.2,29.76,North,354,3.0,11.0,27,0.00,,,0.00,0,Wunderground v.1.15,2013-04-05 18:06:00,
2013-04-05 14:11:00,59.9,25.8,29.75,NNW,333,0.0,8.0,27,0.00,,,0.00,0,Wunderground v.1.15,2013-04-05 18:11:00,
2013-04-05 14:16:00,60.3,29.5,29.75,SE,137,1.0,8.0,31,0.00,,,0.00,0,Wunderground v.1.15,2013-04-05 18:16:00,
2013-04-05 14:22:00,60.7,31.4,29.75,North,0,1.0,5.0,33,0.00,,,0.00,0,Wunderground v.1.15,2013-04-05 18:22:00,
2013-04-05 14:27:00,61.6,29.0,29.75,NE,44,2.0,5.0,29,0.00,,,0.00,0,Wunderground v.1.15,2013-04-05 18:27:00,
2013-04-05 14:32:00,61.7,27.3,29.74,WSW,239,3.0,8.0,27,0.00,,,0.00,0,Wunderground v.1.15,2013-04-05 18:32:00,
2013-04-05 14:37:00,61.3,26.1,29.73,West,278,1.0,9.0,26,0.00,,,0.00,0,Wunderground v.1.15,2013-04-05 18:37:00,
2013-04-05 14:42:00,61.3,27.0,29.73,North,7,5.0,7.0,27,0.00,,,0.00,0,Wunderground v.1.15,2013-04-05 18:42:00,
2013-04-05 14:47:00,61.5,25.3,29.73,WSW,245,2.0,9.0,25,0.00,,,0.00,0,Wunderground v.1.15,2013-04-05 18:47:00,
2013-04-05 14:52:00,61.9,25.7,29.73,NW,315,2.0,6.0,25,0.00,,,0.00,0,Wunderground v.1.15,2013-04-05 18:52:00,
2013-04-05 14:57:00,62.2,26.9,29.73,NNE,17,6.0,10.0,26,0.00,,,0.00,0,Wunderground v.1.15,2013-04-05 18:57:00,
2013-04-05 15:02:00,62.4,26.1,29.73,SSW,206,0.0,9.0,25,0.00,,,0.00,0,Wunderground v.1.15,2013-04-05 19:02:00,
2013-04-05 15:07:00,62.8,25.4,29.73,North,357,2.0,13.0,24,0.00,,,0.00,0,Wunderground v.1.15,2013-04-05 19:07:00,
2013-04-05 15:12:00,63.5,26.0,29.72,North,350,7.0,8.0,24,0.00,,,0.00,0,Wunderground v.1.15,2013-04-05 19:12:00,
2013-04-05 15:17:00,63.6,25.1,29.72,North,356,8.0,12.0,23,0.00,,,0.00,0,Wunderground v.1.15,2013-04-05 19:17:00,
2013-04-05 15:22:00,64.5,25.8,29.72,WSW,254,3.0,7.0,23,0.00,,,0.00,0,Wunderground v.1.15,2013-04-05 19:22:00,
2013-04-05 15:27:00,65.5,25.6,29.72,NNW,330,6.0,15.0,22,0.00,,,0.00,0,Wunderground v.1.15,2013-04-05 19:27:00,
2013-04-05 15:32:00,65.1,25.3,29.72,NW,312,9.0,10.0,22,0.00,,,0.00,0,Wunderground v.1.15,2013-04-05 19:32:00,
2013-04-05 15:37:00,64.3,22.3,29.72,WNW,292,8.0,11.0,20,0.00,,,0.00,0,Wunderground v.1.15,2013-04-05 19:37:00,
2013-04-05 15:42:00,63.5,23.9,29.72,NNW,327,2.0,7.0,22,0.00,,,0.00,0,Wunderground v.1.15,2013-04-05 19:42:00,
2013-04-05 15:47:00,64.3,23.5,29.72,NNE,18,9.0,12.0,21,0.00,,,0.00,0,Wunderground v.1.15,2013-04-05 19:47:00,
2013-04-05 15:52:00,64.3,23.5,29.72,NNW,331,4.0,16.0,21,0.00,,,0.00,0,Wunderground v.1.15,2013-04-05 19:52:00,
2013-04-05 15:57:00,64.0,23.2,29.71,West,259,3.0,16.0,21,0.00,,,0.00,0,Wunderground v.1.15,2013-04-05 19:57:00,
2013-04-05 16:02:00,63.8,23.1,29.72,West,273,4.0,17.0,21,0.00,,,0.00,0,Wunderground v.1.15,2013-04-05 20:02:00,
2013-04-05 16:07:00,64.1,23.3,29.72,WNW,292,5.0,17.0,21,0.00,,,0.00,0,Wunderground v.1.15,2013-04-05 20:07:00,
2013-04-05 16:12:00,64.5,24.8,29.71,WNW,303,3.0,10.0,22,0.00,,,0.00,0,Wunderground v.1.15,2013-04-05 20:12:00,
2013-04-05 16:17:00,64.9,24.0,29.72,West,272,1.0,10.0,21,0.00,,,0.00,0,Wunderground v.1.15,2013-04-05 20:17:00,
2013-04-05 16:23:00,65.2,24.2,29.71,WNW,286,0.0,14.0,21,0.00,,,0.00,0,Wunderground v.1.15,2013-04-05 20:23:00,
2013-04-05 16:28:00,65.4,24.4,29.71,WSW,245,0.0,14.0,21,0.00,,,0.00,0,Wunderground v.1.15,2013-04-05 20:28:00,
2013-04-05 16:34:00,64.4,23.6,29.71,NNW,329,2.0,10.0,21,0.00,,,0.00,0,Wunderground v.1.15,2013-04-05 20:34:00,
2013-04-05 16:39:00,64.7,23.8,29.71,NNW,338,2.0,11.0,21,0.00,,,0.00,0,Wunderground v.1.15,2013-04-05 20:39:00,
2013-04-05 16:44:00,65.0,22.9,29.72,WNW,301,7.0,10.0,20,0.00,,,0.00,0,Wunderground v.1.15,2013-04-05 20:44:00,
2013-04-05 16:49:00,64.4,23.6,29.73,West,280,2.0,15.0,21,0.00,,,0.00,0,Wunderground v.1.15,2013-04-05 20:49:00,
2013-04-05 16:54:00,64.1,23.3,29.72,WSW,252,4.0,18.0,21,0.00,,,0.00,0,Wunderground v.1.15,2013-04-05 20:54:00,
2013-04-05 16:59:00,64.8,23.9,29.73,North,358,3.0,18.0,21,0.00,,,0.00,0,Wunderground v.1.15,2013-04-05 20:59:00,
2013-04-05 17:04:00,65.7,24.7,29.73,West,262,0.0,4.0,21,0.00,,,0.00,0,Wunderground v.1.15,2013-04-05 21:04:00,
2013-04-05 17:09:00,65.9,30.0,29.73,SE,129,6.0,10.0,26,0.00,,,0.00,0,Wunderground v.1.15,2013-04-05 21:09:00,
2013-04-05 17:15:00,62.2,30.4,29.74,SE,143,3.0,9.0,30,0.00,,,0.00,0,Wunderground v.1.15,2013-04-05 21:15:00,
2013-04-05 17:20:00,59.4,31.0,29.74,ESE,103,1.0,2.0,34,0.00,,,0.00,0,Wunderground v.1.15,2013-04-05 21:20:00,
2013-04-05 17:25:00,59.1,32.1,29.74,ESE,109,0.0,4.0,36,0.00,,,0.00,0,Wunderground v.1.15,2013-04-05 21:25:00,
2013-04-05 17:30:00,60.3,33.2,29.75,ESE,108,1.0,1.0,36,0.00,,,0.00,0,Wunderground v.1.15,2013-04-05 21:30:00,
2013-04-05 17:35:00,60.2,33.1,29.75,SE,128,4.0,10.0,36,0.00,,,0.00,0,Wunderground v.1.15,2013-04-05 21:35:00,
2013-04-05 17:40:00,58.6,33.7,29.76,SE,129,3.0,3.0,39,0.00,,,0.00,0,Wunderground v.1.15,2013-04-05 21:40:00,
2013-04-05 17:46:00,59.1,34.8,29.76,ESE,118,3.0,3.0,40,0.00,,,0.00,0,Wunderground v.1.15,2013-04-05 21:46:00,
2013-04-05 17:51:00,59.0,34.7,29.76,SW,214,5.0,5.0,40,0.00,,,0.00,0,Wunderground v.1.15,2013-04-05 21:51:00,
2013-04-05 17:56:00,58.7,33.8,29.76,NE,42,2.0,7.0,39,0.00,,,0.00,0,Wunderground v.1.15,2013-04-05 21:56:00,
2013-04-05 18:01:00,59.3,31.6,29.76,North,356,11.0,11.0,35,0.00,,,0.00,0,Wunderground v.1.15,2013-04-05 22:01:00,
2013-04-05 18:07:00,61.1,26.8,29.76,NE,34,3.0,14.0,27,0.00,,,0.00,0,Wunderground v.1.15,2013-04-05 22:07:00,
2013-04-05 18:12:00,61.9,25.7,29.76,NNW,340,3.0,12.0,25,0.00,,,0.00,0,Wunderground v.1.15,2013-04-05 22:12:00,
2013-04-05 18:17:00,62.1,24.8,29.77,North,357,8.0,13.0,24,0.00,,,0.00,0,Wunderground v.1.15,2013-04-05 22:17:00,
2013-04-05 18:22:00,61.8,22.5,29.77,NW,326,9.0,15.0,22,0.00,,,0.00,0,Wunderground v.1.15,2013-04-05 22:22:00,
2013-04-05 18:27:00,61.1,21.9,29.77,NNW,334,9.0,15.0,22,0.00,,,0.00,0,Wunderground v.1.15,2013-04-05 22:27:00,
2013-04-05 18:32:00,60.7,21.6,29.77,NNW,341,4.0,13.0,22,0.00,,,0.00,0,Wunderground v.1.15,2013-04-05 22:32:00,
2013-04-05 18:37:00,60.2,21.2,29.78,North,358,5.0,15.0,22,0.00,,,0.00,0,Wunderground v.1.15,2013-04-05 22:37:00,
2013-04-05 18:43:00,60.0,21.0,29.78,NW,308,2.0,10.0,22,0.00,,,0.00,0,Wunderground v.1.15,2013-04-05 22:43:00,
2013-04-05 18:48:00,59.8,20.8,29.78,NNW,328,6.0,10.0,22,0.00,,,0.00,0,Wunderground v.1.15,2013-04-05 22:48:00,
2013-04-05 18:54:00,59.4,21.5,29.79,NNW,331,10.0,11.0,23,0.00,,,0.00,0,Wunderground v.1.15,2013-04-05 22:54:00,
2013-04-05 18:59:00,59.3,21.5,29.79,NNW,346,4.0,14.0,23,0.00,,,0.00,0,Wunderground v.1.15,2013-04-05 22:59:00,
2013-04-05 19:04:00,59.0,21.2,29.80,NNW,332,6.0,11.0,23,0.00,,,0.00,0,Wunderground v.1.15,2013-04-05 23:04:00,
2013-04-05 19:09:00,58.8,22.0,29.80,North,351,6.0,11.0,24,0.00,,,0.00,0,Wunderground v.1.15,2013-04-05 23:09:00,
2013-04-05 19:14:00,58.7,22.0,29.80,WNW,284,3.0,12.0,24,0.00,,,0.00,0,Wunderground v.1.15,2013-04-05 23:14:00,
2013-04-05 19:20:00,58.4,21.7,29.80,NNW,327,5.0,5.0,24,0.00,,,0.00,0,Wunderground v.1.15,2013-04-05 23:20:00,
2013-04-05 19:25:00,58.1,22.4,29.81,NNW,328,3.0,9.0,25,0.00,,,0.00,0,Wunderground v.1.15,2013-04-05 23:25:00,
2013-04-05 19:30:00,58.1,22.4,29.81,NNW,332,1.0,2.0,25,0.00,,,0.00,0,Wunderground v.1.15,2013-04-05 23:30:00,
2013-04-05 19:35:00,57.8,22.2,29.82,NNW,334,4.0,9.0,25,0.00,,,0.00,0,Wunderground v.1.15,2013-04-05 23:35:00,
2013-04-05 19:40:00,57.4,22.8,29.82,NNW,337,3.0,3.0,26,0.00,,,0.00,0,Wunderground v.1.15,2013-04-05 23:40:00,
2013-04-05 19:45:00,57.2,21.6,29.82,NNW,333,4.0,9.0,25,0.00,,,0.00,0,Wunderground v.1.15,2013-04-05 23:45:00,
2013-04-05 19:50:00,56.8,21.3,29.82,NW,319,2.0,6.0,25,0.00,,,0.00,0,Wunderground v.1.15,2013-04-05 23:50:00,
2013-04-05 19:55:00,56.7,21.2,29.83,NNW,328,8.0,8.0,25,0.00,,,0.00,0,Wunderground v.1.15,2013-04-05 23:55:00,
2013-04-05 20:00:00,56.6,20.2,29.83,NNW,328,3.0,7.0,24,0.00,,,0.00,0,Wunderground v.1.15,2013-04-06 00:00:00,
2013-04-05 20:05:00,56.5,20.1,29.83,North,358,2.0,7.0,24,0.00,,,0.00,0,Wunderground v.1.15,2013-04-06 00:05:00,
2013-04-05 20:10:00,56.2,20.8,29.83,NNW,337,0.0,2.0,25,0.00,,,0.00,0,Wunderground v.1.15,2013-04-06 00:10:00,
2013-04-05 20:15:00,55.7,20.4,29.84,NNW,340,1.0,7.0,25,0.00,,,0.00,0,Wunderground v.1.15,2013-04-06 00:15:00,
2013-04-05 20:20:00,55.5,19.2,29.84,NW,320,1.0,5.0,24,0.00,,,0.00,0,Wunderground v.1.15,2013-04-06 00:20:00,
2013-04-05 20:25:00,55.3,20.0,29.84,NNW,331,1.0,5.0,25,0.00,,,0.00,0,Wunderground v.1.15,2013-04-06 00:25:00,
2013-04-05 20:30:00,55.1,19.9,29.85,NNW,340,5.0,6.0,25,0.00,,,0.00,0,Wunderground v.1.15,2013-04-06 00:30:00,
2013-04-05 20:35:00,54.9,19.7,29.85,NNW,333,2.0,6.0,25,0.00,,,0.00,0,Wunderground v.1.15,2013-04-06 00:35:00,
2013-04-05 20:40:00,54.6,20.4,29.85,NNW,332,1.0,4.0,26,0.00,,,0.00,0,Wunderground v.1.15,2013-04-06 00:40:00,
2013-04-05 20:45:00,54.3,20.1,29.85,NNW,330,1.0,4.0,26,0.00,,,0.00,0,Wunderground v.1.15,2013-04-06 00:45:00,
2013-04-05 20:50:00,53.9,20.6,29.86,NW,324,4.0,4.0,27,0.00,,,0.00,0,Wunderground v.1.15,2013-04-06 00:50:00,
2013-04-05 20:55:00,53.6,20.4,29.86,NW,325,1.0,5.0,27,0.00,,,0.00,0,Wunderground v.1.15,2013-04-06 00:55:00,
2013-04-05 21:00:00,53.3,20.1,29.86,NW,325,0.0,2.0,27,0.00,,,0.00,0,Wunderground v.1.15,2013-04-06 01:00:00,
2013-04-05 21:05:00,53.2,20.0,29.87,NNW,327,2.0,4.0,27,0.00,,,0.00,0,Wunderground v.1.15,2013-04-06 01:05:00,
2013-04-05 21:10:00,53.1,20.0,29.87,NNW,334,6.0,6.0,27,0.00,,,0.00,0,Wunderground v.1.15,2013-04-06 01:10:00,
2013-04-05 21:15:00,52.9,19.8,29.88,NNW,339,1.0,7.0,27,0.00,,,0.00,0,Wunderground v.1.15,2013-04-06 01:15:00,
2013-04-05 21:20:00,53.0,19.9,29.88,NW,326,5.0,6.0,27,0.00,,,0.00,0,Wunderground v.1.15,2013-04-06 01:20:00,
2013-04-05 21:25:00,53.1,19.1,29.89,NNW,330,4.0,8.0,26,0.00,,,0.00,0,Wunderground v.1.15,2013-04-06 01:25:00,
2013-04-05 21:31:00,53.2,20.0,29.89,NNW,347,1.0,2.0,27,0.00,,,0.00,0,Wunderground v.1.15,2013-04-06 01:31:00,
2013-04-05 21:36:00,52.9,19.8,29.90,NNW,346,2.0,3.0,27,0.00,,,0.00,0,Wunderground v.1.15,2013-04-06 01:36:00,
2013-04-05 21:41:00,52.7,19.6,29.90,North,357,5.0,5.0,27,0.00,,,0.00,0,Wunderground v.1.15,2013-04-06 01:41:00,
2013-04-05 21:46:00,52.4,19.3,29.90,North,359,1.0,5.0,27,0.00,,,0.00,0,Wunderground v.1.15,2013-04-06 01:46:00,
2013-04-05 21:51:00,52.1,19.1,29.91,NE,47,1.0,2.0,27,0.00,,,0.00,0,Wunderground v.1.15,2013-04-06 01:51:00,
2013-04-05 21:57:00,52.0,19.0,29.91,NW,311,2.0,14.0,27,0.00,,,0.00,0,Wunderground v.1.15,2013-04-06 01:57:00,
2013-04-05 22:02:00,51.9,18.9,29.91,North,359,5.0,14.0,27,0.00,,,0.00,0,Wunderground v.1.15,2013-04-06 02:02:00,
2013-04-05 22:07:00,51.7,18.7,29.92,NNW,339,1.0,14.0,27,0.00,,,0.00,0,Wunderground v.1.15,2013-04-06 02:07:00,
2013-04-05 22:12:00,51.5,19.4,29.92,NNW,336,5.0,8.0,28,0.00,,,0.00,0,Wunderground v.1.15,2013-04-06 02:12:00,
2013-04-05 22:17:00,51.4,19.3,29.92,NNW,345,8.0,16.0,28,0.00,,,0.00,0,Wunderground v.1.15,2013-04-06 02:17:00,
2013-04-05 22:22:00,51.2,19.2,29.93,NNW,341,5.0,11.0,28,0.00,,,0.00,0,Wunderground v.1.15,2013-04-06 02:22:00,
2013-04-05 22:27:00,51.0,19.0,29.93,NNW,345,4.0,11.0,28,0.00,,,0.00,0,Wunderground v.1.15,2013-04-06 02:27:00,
2013-04-05 22:32:00,50.7,19.6,29.93,NNW,347,5.0,10.0,29,0.00,,,0.00,0,Wunderground v.1.15,2013-04-06 02:32:00,
2013-04-05 22:37:00,50.5,19.4,29.93,NNW,341,6.0,13.0,29,0.00,,,0.00,0,Wunderground v.1.15,2013-04-06 02:37:00,
2013-04-05 22:42:00,50.5,19.4,29.93,North,349,5.0,13.0,29,0.00,,,0.00,0,Wunderground v.1.15,2013-04-06 02:42:00,
2013-04-05 22:47:00,50.2,19.9,29.94,NW,317,6.0,13.0,30,0.00,,,0.00,0,Wunderground v.1.15,2013-04-06 02:47:00,
2013-04-05 22:52:00,49.8,19.6,29.94,NNE,27,8.0,13.0,30,0.00,,,0.00,0,Wunderground v.1.15,2013-04-06 02:52:00,
2013-04-05 22:57:00,49.7,19.5,29.94,NNW,329,8.0,15.0,30,0.00,,,0.00,0,Wunderground v.1.15,2013-04-06 02:57:00,
2013-04-05 23:02:00,49.5,20.1,29.94,North,10,6.0,9.0,31,0.00,,,0.00,0,Wunderground v.1.15,2013-04-06 03:02:00,
2013-04-05 23:07:00,49.2,19.8,29.95,NNW,347,2.0,11.0,31,0.00,,,0.00,0,Wunderground v.1.15,2013-04-06 03:07:00,
2013-04-05 23:12:00,49.0,19.6,29.95,North,355,4.0,11.0,31,0.00,,,0.00,0,Wunderground v.1.15,2013-04-06 03:12:00,
2013-04-05 23:17:00,48.8,20.2,29.95,NW,317,2.0,11.0,32,0.00,,,0.00,0,Wunderground v.1.15,2013-04-06 03:17:00,
2013-04-05 23:22:00,48.4,19.9,29.96,NNW,327,4.0,5.0,32,0.00,,,0.00,0,Wunderground v.1.15,2013-04-06 03:22:00,
2013-04-05 23:27:00,48.2,20.4,29.96,North,352,2.0,6.0,33,0.00,,,0.00,0,Wunderground v.1.15,2013-04-06 03:27:00,
2013-04-05 23:32:00,47.7,20.0,29.96,NNW,343,5.0,11.0,33,0.00,,,0.00,0,Wunderground v.1.15,2013-04-06 03:32:00,
2013-04-05 23:37:00,47.5,19.8,29.97,NNE,15,10.0,20.0,33,0.00,,,0.00,0,Wunderground v.1.15,2013-04-06 03:37:00,
2013-04-05 23:42:00,47.1,19.4,29.97,NNW,338,7.0,10.0,33,0.00,,,0.00,0,Wunderground v.1.15,2013-04-06 03:42:00,
2013-04-05 23:47:00,46.5,19.6,29.98,NNW,343,9.0,13.0,34,0.00,,,0.00,0,Wunderground v.1.15,2013-04-06 03:47:00,
2013-04-05 23:52:00,46.3,19.4,29.98,North,351,5.0,13.0,34,0.00,,,0.00,0,Wunderground v.1.15,2013-04-06 03:52:00,
2013-04-05 23:58:00,45.9,19.8,29.99,North,355,2.0,15.0,35,0.00,,,0.00,0,Wunderground v.1.15,2013-04-06 03:58:00,